DW8507 Weather Reports


time (UTC)temp
F
wind
direction
speed
knots
gust
knots
rain 1hr
in
rain 24hr
in
rain mn
in
humidity
%
barometer
mb
20260507114058 63 0 0.0 0.0 0.00 0.00 0.00 47 1010.3
20260507113157 64 0 0.0 0.0 0.00 0.00 0.00 44 1010.5
20260507112257 63 0 0.0 0.0 0.00 0.00 0.00 47 1010.5
20260507111611 64 0 0.0 0.0 0.00 0.00 0.00 42 1010.6
20260507110457 64 0 0.0 0.0 0.00 0.00 0.00 48 1010.7
20260507105557 64 0 0.0 0.0 0.00 0.00 0.00 50 1010.6
20260507104657 63 0 0.0 0.0 0.00 0.00 0.00 54 1010.7
20260507104010 62 0 0.0 0.0 0.00 0.00 0.00 56 1010.9
20260507102857 61 0 0.0 0.0 0.00 0.00 0.00 55 1010.8
20260507101958 61 0 0.0 0.0 0.00 0.00 0.00 55 1010.7
20260507101307 61 0 0.0 0.0 0.00 0.00 0.00 56 1011.1
20260507100157 61 0 0.0 0.0 0.00 0.00 0.00 61 1011.2
20260507095258 60 0 0.0 0.0 0.00 0.00 0.00 62 1011.2
20260507094357 60 0 0.0 0.0 0.00 0.00 0.00 65 1011.1
20260507093457 59 0 0.0 0.0 0.00 0.00 0.00 72 1011.3
20260507092557 58 0 0.0 0.0 0.00 0.00 0.00 74 1011.1
20260507091657 57 0 0.0 0.0 0.00 0.00 0.00 79 1011.2
20260507090757 56 0 0.0 0.0 0.00 0.00 0.00 82 1011.5
20260507085857 54 0 0.0 0.0 0.00 0.00 0.00 88 1011.3
20260507084957 53 0 0.0 0.0 0.00 0.00 0.00 92 1011.5
20260507084057 52 0 0.0 0.0 0.00 0.00 0.00 94 1011.3
20260507083408 51 0 0.0 0.0 0.00 0.00 0.00 94 1011.6
20260507082257 49 0 0.0 0.0 0.00 0.00 0.00 94 1011.5
20260507081357 49 0 0.0 0.0 0.00 0.00 0.00 94 1011.5
20260507080710 49 0 0.0 0.0 0.00 0.00 0.00 94 1011.5
20260507075812 48 0 0.0 0.0 0.00 0.00 0.00 95 1011.6
20260507074657 47 0 0.0 0.0 0.00 0.00 0.00 94 1011.5
20260507073758 47 0 0.0 0.0 0.00 0.00 0.00 94 1011.7
20260507072857 46 0 0.0 0.0 0.00 0.00 0.00 94 1011.5
20260507071959 46 0 0.0 0.0 0.00 0.00 0.00 93 1011.4
20260507071058 45 0 0.0 0.0 0.00 0.00 0.00 100 1011.4
20260507070202 45 0 0.0 0.0 0.00 0.00 0.00 97 1011.4
20260507065257 45 0 0.0 0.0 0.00 0.00 0.00 97 1011.4
20260507064358 44 0 0.0 0.0 0.00 0.00 0.00 97 1011.4
20260507063509 44 0 0.0 0.0 0.00 0.00 0.00 97 1011.5
20260507062557 44 0 0.0 0.0 0.00 0.00 0.00 96 1011.2
20260507061658 43 0 0.0 0.0 0.00 0.00 0.00 96 1011.3
20260507060757 43 0 0.0 0.0 0.00 0.00 0.00 96 1011.4
20260507055857 43 0 0.0 0.0 0.00 0.00 0.00 96 1011.4
20260507054958 43 0 0.0 0.0 0.00 0.00 0.00 96 1011.2
20260507054057 43 0 0.0 0.0 0.00 0.00 0.00 95 1011.1
20260507053410 43 0 0.0 0.0 0.00 0.00 0.00 95 1011.2
20260507052257 43 0 0.0 0.0 0.00 0.00 0.00 95 1011.1
20260507051357 43 0 0.0 0.0 0.00 0.00 0.00 95 1011.0
20260507050457 43 0 0.0 0.0 0.00 0.00 0.00 95 1011.2
20260507045557 43 0 0.0 0.0 0.00 0.00 0.00 95 1011.0
20260507044657 43 0 0.0 0.0 0.00 0.00 0.00 95 1010.8
20260507044009 43 0 0.0 0.0 0.00 0.00 0.00 94 1010.8
20260507042857 43 0 0.0 0.0 0.00 0.00 0.00 94 1010.7
20260507042208 43 0 0.0 0.0 0.00 0.00 0.00 94 1010.8
20260507041057 43 0 0.0 0.0 0.00 0.00 0.00 94 1010.8
20260507040157 43 0 0.0 0.0 0.00 0.00 0.00 93 1011.0
20260507035511 43 0 0.0 0.0 0.00 0.00 0.00 93 1010.6
20260507034357 42 0 0.0 0.0 0.00 0.00 0.00 93 1010.7
20260507033457 42 0 0.0 0.0 0.00 0.00 0.00 92 1010.6
20260507032557 42 0 0.0 0.0 0.00 0.00 0.00 92 1010.8
20260507031658 42 0 0.0 0.0 0.00 0.00 0.00 92 1010.6
20260507031007 41 0 0.0 0.0 0.00 0.00 0.00 91 1010.6
20260507030110 41 0 0.0 0.0 0.00 0.00 0.00 91 1010.7
20260507024957 40 0 0.0 0.0 0.00 0.00 0.00 90 1010.8
20260507024057 40 0 0.0 0.0 0.00 0.00 0.00 90 1010.7
20260507023407 40 0 0.0 0.0 0.00 0.00 0.00 89 1010.7
20260507022257 40 0 0.0 0.0 0.00 0.00 0.00 89 1010.5
20260507021357 40 0 0.0 0.0 0.00 0.00 0.00 88 1010.8
20260507020457 40 0 0.0 0.0 0.00 0.00 0.00 88 1010.7
20260507015557 40 0 0.0 0.0 0.00 0.00 0.00 89 1010.6
20260507014657 41 0 0.0 0.0 0.00 0.00 0.00 89 1010.6
20260507013757 41 0 0.0 0.0 0.00 0.00 0.00 89 1010.3
20260507012857 41 0 0.0 0.0 0.00 0.00 0.00 89 1010.4
20260507011957 42 0 0.0 0.0 0.00 0.00 0.00 89 1010.3
20260507011308 42 0 0.0 0.0 0.00 0.00 0.00 89 1010.3
20260507010157 42 0 0.0 0.0 0.00 0.00 0.00 89 1010.3
20260507005507 42 0 0.0 0.0 0.00 0.00 0.00 89 1010.5
20260507004358 42 0 0.0 0.0 0.00 0.00 0.00 88 1010.6
20260507003457 43 0 0.0 0.0 0.00 0.00 0.00 88 1010.5
20260507002557 43 0 0.0 0.0 0.00 0.00 0.00 89 1010.6
20260507001907 43 0 0.0 0.0 0.00 0.00 0.00 88 1010.5
20260507000758 43 0 0.0 0.0 0.00 0.00 0.00 88 1010.8
20260506235857 44 0 0.0 0.0 0.00 0.00 0.00 88 1010.6
20260506234957 44 0 0.0 0.0 0.00 0.00 0.00 87 1010.4
20260506234057 44 0 0.0 0.0 0.00 0.00 0.00 87 1010.3
20260506233409 44 0 0.0 0.0 0.00 0.00 0.00 86 1010.5
20260506232257 45 0 0.0 0.0 0.00 0.00 0.00 86 1010.4
20260506231357 45 0 0.0 0.0 0.00 0.00 0.00 86 1010.4
20260506230711 46 0 0.0 0.0 0.00 0.00 0.00 81 1010.2
20260506225557 46 0 0.0 0.0 0.00 0.00 0.00 81 1010.2
20260506224657 46 0 0.0 0.0 0.00 0.00 0.00 81 1010.4
20260506223758 46 0 0.0 0.0 0.00 0.00 0.00 81 1010.1
20260506222857 46 0 0.0 0.0 0.00 0.00 0.00 80 1010.1
20260506221957 46 0 0.0 0.0 0.00 0.00 0.00 80 1010.1
20260506221057 47 0 0.0 0.0 0.00 0.00 0.00 79 1010.0
20260506220157 47 0 0.0 0.0 0.00 0.00 0.00 79 1010.1
20260506215258 47 0 0.0 0.0 0.00 0.00 0.00 78 1009.7
20260506214358 47 0 0.0 0.0 0.00 0.00 0.00 76 1009.8
20260506213457 48 0 0.0 0.0 0.00 0.00 0.00 75 1010.1
20260506212557 48 0 0.0 0.0 0.00 0.00 0.00 74 1009.7
20260506211657 49 0 0.0 0.0 0.00 0.00 0.00 74 1009.9
20260506210757 49 0 0.0 0.0 0.00 0.00 0.00 73 1009.8
20260506210109 49 0 0.0 0.0 0.00 0.00 0.00 73 1009.5
20260506204957 50 0 0.0 0.0 0.00 0.00 0.00 72 1009.6
20260506204057 50 0 0.0 0.0 0.00 0.00 0.00 72 1009.6
20260506203410 50 0 0.0 0.0 0.00 0.00 0.00 71 1009.5
20260506202508 51 0 0.0 0.0 0.00 0.00 0.00 71 1009.6
20260506201357 51 0 0.0 0.0 0.00 0.00 0.00 70 1009.4
20260506200707 52 0 0.0 0.0 0.00 0.00 0.00 70 1009.5
20260506195557 52 0 0.0 0.0 0.00 0.00 0.00 68 1009.4
20260506194657 52 0 0.0 0.0 0.00 0.00 0.00 66 1009.1
20260506193757 53 0 0.0 0.0 0.00 0.00 0.00 65 1009.1
20260506192857 53 0 0.0 0.0 0.00 0.00 0.00 65 1008.8
20260506191957 53 0 0.0 0.0 0.00 0.00 0.00 65 1009.0
20260506191057 53 0 0.0 0.0 0.00 0.00 0.00 65 1008.8
20260506190409 53 0 0.0 0.0 0.00 0.00 0.00 65 1008.7
20260506185257 54 0 0.0 0.0 0.00 0.00 0.00 65 1008.6
20260506184357 54 0 0.0 0.0 0.00 0.00 0.00 64 1008.5
20260506183457 54 0 0.0 0.0 0.00 0.00 0.00 64 1008.5
20260506182557 54 0 0.0 0.0 0.00 0.00 0.00 63 1008.4
20260506181657 54 0 0.0 0.0 0.00 0.00 0.00 63 1008.5
20260506180758 55 0 0.0 0.0 0.00 0.00 0.00 60 1008.4
20260506175857 55 0 0.0 0.0 0.00 0.00 0.00 59 1008.3
20260506174957 55 0 0.0 0.0 0.00 0.00 0.00 57 1008.2
20260506174057 55 0 0.0 0.0 0.00 0.00 0.00 56 1007.8
20260506173157 56 0 0.0 0.0 0.00 0.00 0.00 55 1007.9
20260506172257 57 0 0.0 0.0 0.00 0.00 0.00 55 1008.1
20260506171358 57 0 0.0 0.0 0.00 0.00 0.00 55 1008.0
20260506170458 57 0 0.0 0.0 0.00 0.00 0.00 55 1007.9
20260506165558 56 0 0.0 0.0 0.00 0.00 0.00 54 1007.9
20260506164909 56 0 0.0 0.0 0.00 0.00 0.00 53 1007.9
20260506163758 56 0 0.0 0.0 0.00 0.00 0.00 56 1007.7
20260506163109 55 0 0.0 0.0 0.00 0.00 0.00 55 1008.0
20260506161958 55 0 0.0 0.0 0.00 0.00 0.00 54 1007.9
20260506161057 56 0 0.0 0.9 0.00 0.00 0.00 54 1007.8
20260506160157 56 0 0.0 0.0 0.00 0.00 0.00 54 1007.8
20260506155257 56 0 0.0 0.0 0.00 0.00 0.00 54 1007.9
20260506154358 57 0 0.0 0.0 0.00 0.00 0.00 53 1008.1
20260506153457 57 0 0.0 0.0 0.00 0.00 0.00 55 1007.7
20260506152557 57 0 0.0 0.0 0.00 0.00 0.00 53 1007.8
20260506151657 58 0 0.0 0.0 0.00 0.00 0.00 53 1007.8
20260506150757 58 0 0.0 0.0 0.00 0.00 0.00 53 1008.0
20260506150107 57 0 0.0 0.0 0.00 0.00 0.00 53 1008.0
20260506144957 57 0 0.0 0.0 0.00 0.00 0.00 55 1008.2
20260506144057 58 0 0.0 0.0 0.00 0.00 0.00 54 1008.0
20260506143157 58 0 0.0 0.0 0.00 0.00 0.00 54 1008.2
20260506142258 58 0 0.0 0.0 0.00 0.00 0.00 52 1008.2
20260506141357 59 0 0.0 0.0 0.00 0.00 0.00 51 1008.0
20260506140457 59 0 0.0 0.0 0.00 0.00 0.00 51 1008.0
20260506135557 59 0 0.0 0.0 0.00 0.00 0.00 51 1007.8
20260506134657 59 0 0.0 0.0 0.00 0.00 0.00 50 1008.0
20260506133757 59 0 0.0 0.0 0.00 0.00 0.00 51 1007.8
20260506132857 58 0 0.0 0.0 0.00 0.00 0.00 51 1007.9
20260506131957 58 0 0.0 0.0 0.00 0.00 0.00 52 1008.3
20260506131057 58 0 0.0 0.0 0.00 0.00 0.00 52 1008.0
20260506130157 58 0 0.0 0.0 0.00 0.00 0.00 52 1008.1
20260506125257 57 0 0.0 0.0 0.00 0.00 0.00 52 1008.3
20260506124357 58 0 0.0 0.0 0.00 0.00 0.00 50 1008.3
20260506123457 58 0 0.0 0.0 0.00 0.00 0.00 48 1008.3
20260506122557 58 0 0.0 0.0 0.00 0.00 0.00 51 1008.2
20260506121657 57 0 0.0 0.0 0.00 0.00 0.00 51 1008.1
20260506120757 57 0 0.0 0.0 0.00 0.00 0.00 51 1008.3
20260506115857 57 0 0.0 0.0 0.00 0.00 0.00 52 1008.2
20260506114957 57 0 0.0 0.0 0.00 0.00 0.00 54 1008.2